Location: Winthrop
(48.4780°N, 120.1850°W)
Time: 19:26:06
(UTC-08:00)

Envisat - Pass Details

Date: 04 December 2022
Orbit: 763 x 765 km, 98.2° (Epoch: 05 February)

Event Time Altitude Azimuth Distance (km) Brightness Sun altitude
Rises 04:02:53 0° 16° (NNE) 3,245 6.5 -34.2°
Reaches altitude 10° 04:05:15 10° 21° (NNE) 2,314 5.7 -33.8°
Enters shadow 04:06:58 21° 27° (NNE) 1,664 4.9 -33.5°
